Domov               UVHVVR             MKGP            O straneh              
ZDRAVSTVENO VARSTVO RASTLIN
  MREŽA AGROMET. POSTAJ
 ► PROGNOSTIČNA OBVESTILA
AGROMETEOROLOŠKI PODATKI -
ARSO
OBVLADOVANJE TVEGANJ ZARADI
NEUGODNIH VREMENSKIH RAZMER
  ► NARAVNE NESREČE
  ► SUŠA/MOČA
  ► NAMAKANJE
  ► ŽLED (gozdarstvo)
KARTOGRAFSKI PRIKAZI
SPLETNE POVEZAVE
PROJEKTI IN PUBLIKACIJE

AGROMETEOROLOŠKA MREŽA: VREMENSKE POSTAJE IN FENOLOŠKA OPAZOVANJA

Pregled podatkov za lokacijo Artiče, meteorološka postaja 42800

Pregled senzorjev na lokaciji

ID Ime Zadnja
vrednost
Datum
zadnje
spremembe
Tip
senzorja
4298 Omočenost lista (U) 0 U 21.5.2018 12:30 A730WET
3778 Padavine (mm) 0 mm 21.5.2018 12:30 Rain-O-Matic
2447 Relativna vlaga 2 m (% RH) 61,95 % RH 21.5.2018 12:30 50YA
2446 Temperatura 2 m (°C) 21,23 °C 21.5.2018 12:30 50YA

Pregled podatkov zadnjih 24 ur

Zap.
št.
Datum in čas Artiče
Omočenost
lista
Padavine Relativna
vlaga
2
m
Temperatura
2
m
1 21.5.2018 12:30
2 21.5.2018 12:00
3 21.5.2018 11:30
4 21.5.2018 11:00 0 0 62,6 21,1
5 21.5.2018 10:30 0 0 61,8 21,3
6 21.5.2018 10:00 0 0 60,9 21,3
7 21.5.2018 09:30 0 0 62,2 20,7
8 21.5.2018 09:00 0 0 62,4 20,3
9 21.5.2018 08:30 0 0 63,1 19,6
10 21.5.2018 08:00 0 0 66,4 19
11 21.5.2018 07:30 0 0 76,4 17,2
12 21.5.2018 07:00 0 0 77,1 16,6
13 21.5.2018 06:30 0 0 79,1 15,8
14 21.5.2018 06:00 6 0 81,9 15
15 21.5.2018 05:30 10 0 90,6 13,1
16 21.5.2018 05:00 10 0 91,7 12,7
17 21.5.2018 04:30 10 0 92,4 12,6
18 21.5.2018 04:00 10 0 92,7 12,2
19 21.5.2018 03:30 10 0 91,2 12,4
20 21.5.2018 03:00 8 0 86,6 13,8
21 21.5.2018 02:30 10 0 87,3 13,8
22 21.5.2018 02:00 10 0 87,2 13,9
23 21.5.2018 01:30 3 0 84,7 14,4
24 21.5.2018 01:00 2 0 83,7 14,6
25 21.5.2018 00:30 10 0 85,1 14,5
26 21.5.2018 00:00 4 0 82,5 15
27 20.5.2018 23:30 2 0 80,5 15,2
28 20.5.2018 23:00 1 0 79,1 15,5
29 20.5.2018 22:30 0 0 75,9 16
30 20.5.2018 22:00 0 0 72,6 16,5
31 20.5.2018 21:30 0 0 65,9 18,1
32 20.5.2018 21:00 0 0 62,1 18,5
33 20.5.2018 20:30 0 0 61,8 18,7
34 20.5.2018 20:00 0 0 62,9 18,8
35 20.5.2018 19:30 0 0 63,4 19
36 20.5.2018 19:00 0 0 61,6 19,5
37 20.5.2018 18:30 0 0 61,9 20,1
38 20.5.2018 18:00 0 0 57,2 21,2
39 20.5.2018 17:30 0 0 60,7 20,8
40 20.5.2018 17:00 0 0 68,4 19,8
41 20.5.2018 16:30 0 0 70 19,7
42 20.5.2018 16:00 0 0 62,1 20,6
43 20.5.2018 15:30 0 0 58,9 21,2
44 20.5.2018 15:00 0 0 59,5 21,1
45 20.5.2018 14:30 0 0 60,8 20,9
46 20.5.2018 14:00 0 0 61,2 20,7
47 20.5.2018 13:30 0 0 62,7 20,7
48 20.5.2018 13:00 0 0 62,4 20,5
© 2011 Ministrstvo za kmetijstvo, gozdarstvo in prehrano. Vse pravice pridržane.